| time (UTC) | temp F | wind direction | speed knots | gust knots | rain 1hr in | rain 24hr in | rain mn in | humidity % | barometer mb |
| 20260505041539 | 64 | 354 | 11.3 | 20.0 | 0.00 | 0.00 | 0.00 | 56 | 1002.2 |
| 20260505040859 | 0 | 355 | 12.2 | 7.0 | 0.00 | 0.00 | 0.00 | ||
| 20260505040108 | 63 | 355 | 9.6 | 19.1 | 0.00 | 0.00 | 0.00 | 60 | 1001.8 |
| 20260505035429 | 0 | 357 | 7.8 | 10.4 | 0.00 | 0.00 | 0.00 | ||
| 20260505034640 | 65 | 356 | 11.3 | 19.1 | 0.00 | 0.00 | 0.00 | 53 | 1002.5 |
| 20260505034000 | 64 | 354 | 10.4 | 19.1 | 0.00 | 0.00 | 0.00 | 55 | 1001.8 |
| 20260505033213 | 64 | 350 | 8.7 | 15.6 | 0.00 | 0.00 | 0.00 | 55 | 1001.6 |
| 20260505032534 | 64 | 355 | 7.8 | 16.5 | 0.00 | 0.00 | 0.00 | 55 | 1001.7 |
| 20260505031852 | 63 | 358 | 7.0 | 13.0 | 0.00 | 0.00 | 0.00 | 57 | 1001.8 |
| 20260505031212 | 63 | 355 | 6.1 | 12.2 | 0.00 | 0.00 | 0.00 | 57 | 1001.9 |
| 20260505030533 | 0 | 355 | 5.2 | 5.2 | 0.00 | 0.00 | 0.00 | ||
| 20260505025637 | 64 | 356 | 8.7 | 14.8 | 0.00 | 0.00 | 0.00 | 54 | 1002.2 |
| 20260505024958 | 0 | 356 | 10.4 | 8.7 | 0.00 | 0.00 | 0.00 | ||
| 20260505024058 | 0 | 351 | 9.6 | 15.6 | 0.00 | 0.00 | 0.00 | ||
| 20260505023306 | 66 | 355 | 7.0 | 13.9 | 0.00 | 0.00 | 0.00 | 44 | 1002.3 |
| 20260505022626 | 67 | 356 | 9.6 | 14.8 | 0.00 | 0.00 | 0.00 | 43 | 1002.2 |
| 20260505021946 | 67 | 355 | 8.7 | 13.0 | 0.00 | 0.00 | 0.00 | 43 | 1002.5 |
| 20260505021307 | 0 | 356 | 8.7 | 7.0 | 0.00 | 0.00 | 0.00 | ||
| 20260505020404 | 68 | 354 | 9.6 | 23.5 | 0.00 | 0.00 | 0.00 | 40 | 1002.6 |
| 20260505015724 | 68 | 356 | 15.6 | 23.5 | 0.00 | 0.00 | 0.00 | 37 | 1002.6 |
| 20260505015045 | 0 | 354 | 13.0 | 16.5 | 0.00 | 0.00 | 0.00 | ||
| 20260505014254 | 65 | 356 | 4.3 | 7.8 | 0.00 | 0.00 | 0.00 | 36 | 1001.9 |
| 20260505013615 | 0 | 357 | 3.5 | 3.5 | 0.00 | 0.00 | 0.00 | ||
| 20260505012825 | 0 | 351 | 1.7 | 1.7 | 0.00 | 0.00 | 0.00 | ||
| 20260505012033 | 64 | 353 | 1.7 | 5.2 | 0.00 | 0.00 | 0.00 | 35 | 1001.9 |
| 20260505011358 | 64 | 358 | 0.0 | 4.3 | 0.00 | 0.00 | 0.00 | 35 | 1001.9 |
| 20260505010713 | 0 | 355 | 2.6 | 3.5 | 0.00 | 0.00 | 0.00 | ||
| 20260505005815 | 64 | 355 | 3.5 | 7.0 | 0.00 | 0.00 | 0.00 | 35 | 1002.1 |
| 20260505005135 | 0 | 353 | 0.0 | 4.3 | 0.00 | 0.00 | 0.00 | ||
| 20260505004124 | 64 | 356 | 0.9 | 3.5 | 0.00 | 0.00 | 0.00 | 35 | 1002.0 |
| 20260505003445 | 64 | 356 | 0.0 | 5.2 | 0.00 | 0.00 | 0.00 | 36 | 1002.0 |
| 20260505002805 | 64 | 355 | 1.7 | 5.2 | 0.00 | 0.00 | 0.00 | 36 | 1002.1 |
| 20260505002125 | 62 | 356 | 0.0 | 7.8 | 0.00 | 0.00 | 0.00 | 40 | 1002.0 |
| 20260505001446 | 0 | 358 | 5.2 | 3.5 | 0.00 | 0.00 | 0.00 | ||
| 20260505000549 | 60 | 356 | 4.3 | 8.7 | 0.00 | 0.00 | 0.00 | 44 | 1002.2 |
| 20260504235909 | 62 | 355 | 5.2 | 8.7 | 0.00 | 0.00 | 0.00 | 39 | 1002.2 |
| 20260504235229 | 62 | 356 | 5.2 | 9.6 | 0.00 | 0.00 | 0.00 | 40 | 1002.3 |
| 20260504234550 | 61 | 354 | 7.0 | 9.6 | 0.00 | 0.00 | 0.00 | 42 | 1002.4 |
| 20260504233909 | 60 | 355 | 4.3 | 8.7 | 0.00 | 0.00 | 0.00 | 46 | 1002.5 |
| 20260504233230 | 61 | 0 | 6.1 | 6.1 | 0.00 | 0.00 | 0.00 | 43 | 1002.4 |
| 20260504232439 | 63 | 354 | 7.0 | 9.6 | 0.00 | 0.00 | 0.00 | 38 | 1002.4 |
| 20260504231800 | 61 | 356 | 7.0 | 9.6 | 0.00 | 0.00 | 0.00 | 41 | 1002.4 |
| 20260504231119 | 62 | 355 | 7.0 | 10.4 | 0.00 | 0.00 | 0.00 | 40 | 1002.4 |
| 20260504230441 | 63 | 356 | 5.2 | 9.6 | 0.00 | 0.00 | 0.00 | 42 | 1002.5 |
| 20260504225800 | 63 | 357 | 6.1 | 9.6 | 0.00 | 0.00 | 0.00 | 43 | 1002.4 |
| 20260504225119 | 61 | 357 | 7.0 | 9.6 | 0.00 | 0.00 | 0.00 | 46 | 1002.5 |
| 20260504224439 | 62 | 355 | 6.1 | 9.6 | 0.00 | 0.00 | 0.00 | 44 | 1002.5 |
| 20260504223800 | 60 | 356 | 4.3 | 4.3 | 0.00 | 0.00 | 0.00 | 49 | 1002.6 |
| 20260504223010 | 61 | 356 | 3.5 | 9.6 | 0.00 | 0.00 | 0.00 | 48 | 1002.5 |
| 20260504222332 | 62 | 358 | 6.1 | 9.6 | 0.00 | 0.00 | 0.00 | 44 | 1002.3 |
| 20260504221652 | 62 | 356 | 7.0 | 9.6 | 0.00 | 0.00 | 0.00 | 45 | 1002.3 |
| 20260504221012 | 0 | 353 | 7.0 | 7.0 | 0.00 | 0.00 | 0.00 | ||
| 20260504220223 | 0 | 354 | 3.5 | 5.2 | 0.00 | 0.00 | 0.00 | ||
| 20260504215432 | 62 | 356 | 6.1 | 8.7 | 0.00 | 0.00 | 0.00 | 44 | 1002.5 |
| 20260504214752 | 0 | 354 | 5.2 | 6.1 | 0.00 | 0.00 | 0.00 | ||
| 20260504214012 | 63 | 355 | 5.2 | 8.7 | 0.00 | 0.00 | 0.00 | 40 | 1002.4 |
| 20260504213322 | 63 | 355 | 6.1 | 8.7 | 0.00 | 0.00 | 0.00 | 40 | 1002.3 |
| 20260504212643 | 0 | 355 | 2.6 | 3.5 | 0.00 | 0.00 | 0.00 | ||
| 20260504211850 | 63 | 355 | 4.3 | 8.7 | 0.00 | 0.00 | 0.00 | 39 | 1002.4 |
| 20260504211210 | 65 | 357 | 2.6 | 4.3 | 0.00 | 0.00 | 0.00 | 37 | 1002.4 |
| 20260504210422 | 64 | 355 | 3.5 | 7.8 | 0.00 | 0.00 | 0.00 | 37 | 1002.4 |
| 20260504205742 | 64 | 356 | 0.0 | 5.2 | 0.00 | 0.00 | 0.00 | 38 | 1002.4 |
| 20260504205102 | 63 | 357 | 0.9 | 7.0 | 0.00 | 0.00 | 0.00 | 40 | 1002.4 |
| 20260504204422 | 64 | 353 | 3.5 | 7.0 | 0.00 | 0.00 | 0.00 | 39 | 1002.6 |
| 20260504203742 | 64 | 355 | 0.0 | 0.0 | 0.00 | 0.00 | 0.00 | 41 | 1002.7 |
| 20260504203101 | 64 | 355 | 0.0 | 1.7 | 0.00 | 0.00 | 0.00 | 41 | 1002.8 |
| 20260504202423 | 0 | 351 | 0.0 | 6.1 | 0.00 | 0.00 | 0.00 | ||
| 20260504201631 | 64 | 355 | 0.0 | 6.1 | 0.00 | 0.00 | 0.00 | 45 | 1002.9 |
| 20260504200951 | 64 | 356 | 0.9 | 8.7 | 0.00 | 0.00 | 0.00 | 45 | 1002.9 |
| 20260504200312 | 63 | 356 | 4.3 | 7.8 | 0.00 | 0.00 | 0.00 | 42 | 1003.1 |
| 20260504195631 | 64 | 356 | 4.3 | 7.8 | 0.00 | 0.00 | 0.00 | 40 | 1003.1 |
| 20260504194953 | 64 | 354 | 3.5 | 7.8 | 0.00 | 0.00 | 0.00 | 40 | 1003.2 |
| 20260504194313 | 64 | 355 | 0.9 | 6.1 | 0.00 | 0.00 | 0.00 | 42 | 1003.2 |
| 20260504193633 | 63 | 356 | 0.9 | 8.7 | 0.00 | 0.00 | 0.00 | 44 | 1003.4 |
| 20260504192953 | 63 | 356 | 4.3 | 8.7 | 0.00 | 0.00 | 0.00 | 42 | 1003.5 |
| 20260504192312 | 62 | 356 | 6.1 | 8.7 | 0.00 | 0.00 | 0.00 | 43 | 1003.5 |
| 20260504191633 | 0 | 0 | 3.5 | 3.5 | 0.00 | 0.00 | 0.00 | ||
| 20260504190843 | 62 | 357 | 1.7 | 5.2 | 0.00 | 0.00 | 0.00 | 46 | 1003.8 |
| 20260504190201 | 63 | 357 | 1.7 | 7.0 | 0.00 | 0.00 | 0.00 | 44 | 1003.9 |
| 20260504185524 | 0 | 357 | 4.3 | 7.0 | 0.00 | 0.00 | 0.00 | ||
| 20260504184730 | 60 | 356 | 3.5 | 7.0 | 0.00 | 0.00 | 0.00 | 51 | 1004.1 |
| 20260504184055 | 60 | 356 | 4.3 | 7.0 | 0.00 | 0.00 | 0.00 | 50 | 1004.1 |
| 20260504183411 | 60 | 356 | 2.6 | 1.7 | 0.00 | 0.00 | 0.00 | 49 | 1004.2 |
| 20260504182618 | 58 | 357 | 3.5 | 7.0 | 0.00 | 0.00 | 0.00 | 50 | 1004.4 |
| 20260504181938 | 58 | 356 | 3.5 | 7.0 | 0.00 | 0.00 | 0.00 | 51 | 1004.4 |
| 20260504181258 | 60 | 357 | 0.0 | 7.0 | 0.00 | 0.00 | 0.00 | 48 | 1004.4 |
| 20260504180619 | 0 | 355 | 6.1 | 3.5 | 0.00 | 0.00 | 0.00 | ||
| 20260504175642 | 0 | 351 | 0.0 | 0.0 | 0.00 | 0.00 | 0.00 | ||
| 20260504174850 | 58 | 357 | 0.0 | 0.0 | 0.00 | 0.00 | 0.00 | 55 | 1004.8 |
| 20260504174210 | 57 | 354 | 0.0 | 6.1 | 0.00 | 0.00 | 0.00 | 57 | 1004.9 |
| 20260504173530 | 57 | 356 | 0.0 | 7.0 | 0.00 | 0.00 | 0.00 | 56 | 1005.0 |
| 20260504172849 | 57 | 355 | 4.3 | 7.8 | 0.00 | 0.00 | 0.00 | 55 | 1004.9 |
| 20260504172210 | 58 | 356 | 5.2 | 7.8 | 0.00 | 0.00 | 0.00 | 52 | 1004.9 |
| 20260504171530 | 58 | 357 | 3.5 | 7.0 | 0.00 | 0.00 | 0.00 | 54 | 1004.9 |
| 20260504170850 | 58 | 355 | 4.3 | 7.0 | 0.00 | 0.00 | 0.00 | 54 | 1005.1 |
| 20260504170211 | 57 | 357 | 3.5 | 7.0 | 0.00 | 0.00 | 0.00 | 58 | 1005.1 |
| 20260504160140 | 57 | 355 | 6.1 | 10.4 | 0.00 | 0.00 | 0.00 | 52 | 1005.7 |
| 20260504151134 | 0 | 356 | 7.8 | 8.7 | 0.00 | 0.00 | 0.00 | ||
| 20260504150340 | 60 | 354 | 6.1 | 13.9 | 0.00 | 0.00 | 0.00 | 46 | 1006.1 |
| 20260504141114 | 0 | 355 | 7.8 | 7.0 | 0.00 | 0.00 | 0.00 | ||
| 20260504140325 | 60 | 356 | 7.8 | 13.9 | 0.00 | 0.00 | 0.00 | 43 | 1005.9 |
| 20260504130802 | 59 | 353 | 9.6 | 15.6 | 0.00 | 0.00 | 0.00 | 38 | 1006.1 |
| 20260504130127 | 60 | 357 | 8.7 | 15.6 | 0.00 | 0.00 | 0.00 | 38 | 1006.2 |
| 20260504100317 | 51 | 355 | 4.3 | 8.7 | 0.00 | 0.00 | 0.00 | 47 | 1005.9 |
| 20260504081422 | 0 | 358 | 8.7 | 8.7 | 0.00 | 0.00 | 0.00 | ||
| 20260504080630 | 52 | 355 | 10.4 | 5.2 | 0.00 | 0.00 | 0.00 | 42 | 1006.7 |
| 20260504070303 | 0 | 355 | 8.7 | 7.8 | 0.00 | 0.00 | 0.00 | ||
| 20260504050553 | 0 | 353 | 7.0 | 5.2 | 0.00 | 0.00 | 0.00 | ||
| 20260504045804 | 52 | 356 | 7.0 | 18.2 | 0.00 | 0.00 | 0.00 | 50 | 1008.8 |
| 20260504045124 | 54 | 357 | 9.6 | 18.2 | 0.00 | 0.00 | 0.00 | 39 | 1008.7 |
| 20260504044443 | 55 | 355 | 10.4 | 17.4 | 0.00 | 0.00 | 0.00 | 37 | 1008.6 |
| 20260504043804 | 0 | 356 | 7.8 | 16.5 | 0.00 | 0.00 | 0.00 | ||
| 20260504043011 | 54 | 354 | 9.6 | 16.5 | 0.00 | 0.00 | 0.00 | 37 | 1008.4 |
| 20260504042331 | 54 | 357 | 8.7 | 14.8 | 0.00 | 0.00 | 0.00 | 38 | 1008.3 |